Location: Roanoke
(37.2710°N, 79.9420°W)
Time: 13:50:40
(UTC-05:00)

Courier 1B Rocket - Pass Details

Date: 18 November 2019
Orbit: 920 x 1202 km, 28.2° (Epoch: 07 December)

Event Time Altitude Azimuth Distance (km) Brightness Sun altitude
Rises 21:25:36 0° 261° (W) 4,077 8.8 -51.0°
Enters shadow 21:29:45 - 241° (WSW) 3,174 7.9 -51.8°
Reaches altitude 10° 21:30:02 10° 239° (WSW) 3,126 - -51.8°
Maximum altitude 21:33:52 14° 209° (SSW) 2,799 - -52.6°
Drops below altitude 10° 21:37:42 10° 179° (S) 3,109 - -53.3°
Sets 21:42:06 0° 156° (SSE) 4,040 - -54.1°
